Location: Armstrong Village
(14.3346°N, 120.9854°E)
Time: 12:20:54
(UTC+00:00)

Cosmos 1821 Rocket - Pass Details

Date: 19 April 2026
Orbit: 945 x 1003 km, 82.9° (Epoch: 12 May)

Event Time Altitude Azimuth Distance (km) Brightness Sun altitude
Rises 12:58:15 0° 217° (SW) 3,631 7.1 -39.2°
Reaches altitude 10° 13:01:29 10° 234° (SW) 2,696 6.5 -39.9°
Maximum altitude 13:05:44 19° 278° (W) 2,107 6.2 -40.8°
Drops below altitude 10° 13:10:03 10° 322° (NW) 2,725 6.9 -41.7°
Sets 13:13:22 0° 339° (NNW) 3,685 7.6 -42.4°
